Denver, CO

11:42 PM MDT on October 18, 2017 (GMT -0600)
Front Range

Weather History for KFTG - June, 2013

Change the Weather History Date:

Saturday, June 29, 2013

  Actual Average (KBKF) Record (KBKF)
Temperature  
Mean Temperature 73 °F -  
Max Temperature 87 °F 84 °F 95 °F (2002)
Min Temperature 59 °F 56 °F 50 °F (1999)
Cooling Degree Days 8    
Growing Degree Days 23 (Base 50)    
Moisture  
Dew Point 51 °F    
Average Humidity 45    
Maximum Humidity 77    
Minimum Humidity 24    
Precipitation  
Precipitation 0.00 in - - ()
Sea Level Pressure  
Sea Level Pressure 30.25 in    
Wind  
Wind Speed 7 mph (SE)    
Max Wind Speed 15 mph    
Max Gust Speed 22 mph    
Visibility 10 miles    
Events Thunderstorm    
Averages and records for this station are not official NWS values.
T = Trace of Precipitation, MM = Missing Value Source: NWS Daily Summary

Daily Weather History Graph

Daily Weather History Graph

Search for Another Location

Airport or City:

Trip Planner

Search our weather history database for the weather conditions in past years. The results will help you decide how hot, cold, wet, or windy it might be!

Date:

Astronomy

Jun. 29, 2013 Rise Set
Actual Time 5:32 AM MDT 8:30 PM MDT
Civil Twilight 5:00 AM MDT 9:02 PM MDT
Nautical Twilight 4:19 AM MDT 9:44 PM MDT
Astronomical Twilight 3:31 AM MDT 10:31 PM MDT
Moon 12:01 AM MDT (6/29) 12:46 PM MDT (6/29)
Length of Visible Light 16h 02m
Length of Day
14h 57m
Waning Gibbous, 55% of the Moon is Illuminated
Jun 29
Waning Gibbous
Jun 29
Last Quarter
Jul 8
New
Jul 15
First Quarter
Jul 22
Full

Hourly Weather History & Observations

Time (MDT) Temp. Heat Index Dew Point Humidity Pressure Visibility Wind Dir Wind Speed Gust Speed Precip Events Conditions
12:17 AM 71.6 °F - 53.6 °F 53% 30.32 in 10.0 mi SSE 13.8 mph - N/A   Clear
12:38 AM 69.8 °F - 53.6 °F 56% 30.31 in 10.0 mi SSE 10.4 mph - N/A   Clear
12:58 AM 69.8 °F - 53.6 °F 56% 30.31 in 10.0 mi South 3.5 mph - N/A   Clear
1:18 AM 68.0 °F - 53.6 °F 60% 30.30 in 10.0 mi SW 5.8 mph - N/A   Clear
1:37 AM 68.0 °F - 53.6 °F 60% 30.30 in 10.0 mi WSW 4.6 mph - N/A   Clear
1:58 AM 62.6 °F - 53.6 °F 72% 30.30 in 10.0 mi West 8.1 mph - N/A   Clear
2:19 AM 62.6 °F - 55.4 °F 77% 30.30 in 10.0 mi West 9.2 mph - N/A   Clear
2:37 AM 62.6 °F - 55.4 °F 77% 30.29 in 10.0 mi West 5.8 mph - N/A   Clear
2:59 AM 66.2 °F - 53.6 °F 64% 30.29 in 10.0 mi SW 5.8 mph - N/A   Clear
3:19 AM 68.0 °F - 51.8 °F 56% 30.28 in 10.0 mi SSW 4.6 mph - N/A   Clear
3:39 AM 62.6 °F - 51.8 °F 68% 30.28 in 10.0 mi SE 3.5 mph - N/A   Clear
3:59 AM 62.6 °F - 51.8 °F 68% 30.28 in 10.0 mi SE 9.2 mph - N/A   Clear
4:19 AM 60.8 °F - 51.8 °F 72% 30.28 in 10.0 mi ESE 10.4 mph - N/A   Clear
4:39 AM 60.8 °F - 51.8 °F 72% 30.28 in 10.0 mi ESE 8.1 mph - N/A   Clear
4:59 AM 59.0 °F - 51.8 °F 77% 30.28 in 10.0 mi SSE 6.9 mph - N/A   Clear
5:19 AM 60.8 °F - 51.8 °F 72% 30.28 in 10.0 mi SSE 5.8 mph - N/A   Clear
5:39 AM 60.8 °F - 51.8 °F 72% 30.28 in 10.0 mi South 3.5 mph - N/A   Clear
5:58 AM 60.8 °F - 51.8 °F 72% 30.28 in 10.0 mi South 8.1 mph - N/A   Clear
6:19 AM 62.6 °F - 51.8 °F 68% 30.28 in 10.0 mi South 4.6 mph - N/A   Clear
6:39 AM 64.4 °F - 51.8 °F 64% 30.29 in 10.0 mi South 6.9 mph - N/A   Clear
6:59 AM 66.2 °F - 53.6 °F 64% 30.30 in 10.0 mi South 6.9 mph - N/A   Clear
7:19 AM 68.0 °F - 53.6 °F 60% 30.30 in 10.0 mi South 4.6 mph - N/A   Clear
7:39 AM 69.8 °F - 53.6 °F 56% 30.30 in 10.0 mi SSW 10.4 mph - N/A   Clear
7:47 AM 71.6 °F - 55.4 °F 57% 30.29 in 40.0 mi SW 8.1 mph - N/A   Scattered Clouds
7:59 AM 71.6 °F - 53.6 °F 53% 30.29 in 10.0 mi SW 6.9 mph - N/A   Clear
8:19 AM 71.6 °F - 53.6 °F 53% 30.30 in 10.0 mi SW 4.6 mph - N/A   Clear
8:39 AM 73.4 °F - 55.4 °F 53% 30.29 in 10.0 mi WSW 5.8 mph - N/A   Clear
8:47 AM 73.4 °F - 55.4 °F 53% 30.29 in 40.0 mi SSW 5.8 mph - N/A   Scattered Clouds
8:59 AM 73.4 °F - 55.4 °F 53% 30.29 in 10.0 mi WSW 4.6 mph - N/A   Clear
9:19 AM 73.4 °F - 53.6 °F 50% 30.29 in 10.0 mi Calm Calm - N/A   Clear
9:38 AM 73.4 °F - 53.6 °F 50% 30.29 in 10.0 mi Calm Calm - N/A   Clear
9:59 AM 77.0 °F - 53.6 °F 44% 30.28 in 10.0 mi West 4.6 mph - N/A   Clear
10:19 AM 77.0 °F - 53.6 °F 44% 30.28 in 10.0 mi Calm Calm - N/A Thunderstorm Clear
10:39 AM 78.8 °F - 53.6 °F 42% 30.28 in 10.0 mi Calm Calm - N/A   Clear
10:47 AM 80.6 °F 80.3 °F 53.6 °F 39% 30.28 in 40.0 mi Calm Calm - N/A   Scattered Clouds
10:59 AM 80.6 °F - 51.8 °F 37% 30.28 in 10.0 mi Calm Calm - N/A   Clear
11:19 AM 82.4 °F - 51.8 °F 35% 30.27 in 10.0 mi SW 3.5 mph - N/A   Clear
11:39 AM 82.4 °F - 51.8 °F 35% 30.27 in 10.0 mi Calm Calm - N/A Thunderstorm Clear
11:59 AM 82.4 °F - 50.0 °F 32% 30.26 in 10.0 mi Calm Calm - N/A   Clear
12:19 PM 82.4 °F - 50.0 °F 32% 30.25 in 10.0 mi Calm Calm - N/A   Clear
12:39 PM 86.0 °F - 50.0 °F 29% 30.25 in 10.0 mi East 3.5 mph - N/A   Clear
12:48 PM 86.0 °F - 50.0 °F 29% 30.25 in 30.0 mi ENE 9.2 mph - N/A   Scattered Clouds
12:59 PM 86.0 °F - 50.0 °F 29% 30.25 in 10.0 mi ESE 4.6 mph - N/A   Scattered Clouds
1:19 PM 87.8 °F - 50.0 °F 27% 30.25 in 10.0 mi ENE 9.2 mph 17.3 mph N/A   Scattered Clouds
1:38 PM 87.8 °F - 50.0 °F 27% 30.24 in 10.0 mi ENE 8.1 mph 21.9 mph N/A   Clear
1:53 PM 87.8 °F - 50.0 °F 27% 30.23 in 30.0 mi NNE 5.8 mph - N/A   Mostly Cloudy
1:59 PM 86.0 °F - 50.0 °F 29% 30.22 in 10.0 mi ENE 11.5 mph - N/A   Clear
2:19 PM 87.8 °F - 48.2 °F 25% 30.22 in 10.0 mi NE 15.0 mph - N/A   Clear
2:39 PM 86.0 °F - 48.2 °F 27% 30.22 in 10.0 mi NE 6.9 mph - N/A   Clear
2:59 PM 86.0 °F - 46.4 °F 25% 30.24 in 10.0 mi NE 5.8 mph - N/A   Clear
3:19 PM 86.0 °F - 46.4 °F 25% 30.24 in 10.0 mi NNE 8.1 mph - N/A   Clear
3:39 PM 86.0 °F - 46.4 °F 25% 30.23 in 10.0 mi North 4.6 mph - N/A   Clear
3:59 PM 86.0 °F 84.2 °F 53.6 °F 33% 30.22 in 10.0 mi WNW 13.8 mph 19.6 mph N/A Thunderstorm Scattered Clouds
4:19 PM 84.2 °F - 51.8 °F 33% 30.21 in 10.0 mi WNW 15.0 mph - N/A   Scattered Clouds
4:39 PM 86.0 °F - 51.8 °F 31% 30.21 in 10.0 mi NW 4.6 mph - N/A   Clear
4:59 PM 84.2 °F - 51.8 °F 33% 30.20 in 10.0 mi North 4.6 mph - N/A   Clear
5:19 PM 86.0 °F - 50.0 °F 29% 30.20 in 10.0 mi North 3.5 mph - N/A   Clear
5:39 PM 84.2 °F - 50.0 °F 30% 30.19 in 10.0 mi Calm Calm - N/A   Clear
5:59 PM 84.2 °F - 50.0 °F 30% 30.18 in 10.0 mi NNW 4.6 mph - N/A   Clear
6:19 PM 84.2 °F - 50.0 °F 30% 30.18 in 10.0 mi NNW 4.6 mph - N/A   Clear
6:39 PM 86.0 °F - 48.2 °F 27% 30.19 in 10.0 mi NNE 5.8 mph - N/A   Clear
6:59 PM 84.2 °F - 48.2 °F 29% 30.19 in 10.0 mi ENE 6.9 mph - N/A   Clear
7:19 PM 86.0 °F - 46.4 °F 25% 30.18 in 10.0 mi ENE 8.1 mph - N/A   Clear
7:39 PM 82.4 °F - 42.8 °F 25% 30.18 in 10.0 mi East 6.9 mph - N/A   Clear
7:59 PM 80.6 °F - 41.0 °F 24% 30.18 in 10.0 mi NE 10.4 mph - N/A   Clear
8:19 PM 78.8 °F - 42.8 °F 28% 30.19 in 10.0 mi NE 4.6 mph - N/A   Clear
8:39 PM 77.0 °F - 42.8 °F 29% 30.19 in 10.0 mi East 3.5 mph - N/A   Clear
8:59 PM 78.8 °F - 42.8 °F 28% 30.20 in 10.0 mi East 4.6 mph - N/A   Clear
9:19 PM 75.2 °F - 44.6 °F 34% 30.21 in 10.0 mi East 8.1 mph - N/A   Clear
9:38 PM 75.2 °F - 46.4 °F 36% 30.21 in 10.0 mi ESE 4.6 mph - N/A   Clear
9:58 PM 75.2 °F - 46.4 °F 36% 30.24 in 10.0 mi East 11.5 mph - N/A   Scattered Clouds
10:18 PM 73.4 °F - 48.2 °F 41% 30.23 in 10.0 mi East 12.7 mph - N/A   Scattered Clouds
10:38 PM 73.4 °F - 50.0 °F 44% 30.23 in 10.0 mi East 15.0 mph 21.9 mph N/A   Scattered Clouds
10:58 PM 71.6 °F - 51.8 °F 50% 30.23 in 10.0 mi East 13.8 mph 18.4 mph N/A   Clear
11:18 PM 71.6 °F - 51.8 °F 50% 30.23 in 10.0 mi East 13.8 mph 19.6 mph N/A   Clear
11:38 PM 71.6 °F - 51.8 °F 50% 30.24 in 10.0 mi East 12.7 mph - N/A   Clear
11:58 PM 69.8 °F - 51.8 °F 53% 30.24 in 10.0 mi ESE 11.5 mph 19.6 mph N/A   Clear